Terminal Aerodrome Forecast
Issued by NWS Denver/Boulder, CO

Home | Current Version | Previous Version | Text Only | Print | Product List | Glossary On
Versions: 1 2 3 4 5 6 7 8 9 10 11 12 13 14 15 16 17 18 19 20 21 22 23 24 25 26 27 28 29 30 31 32 33 34 35 36 37 38 39 40 41 42 43 44 45 46 47 48 49 50
000
FTUS45 KBOU 070427 AAD
TAFDEN
TAF AMD
KDEN 070427Z 0704/0806 02005KT P6SM VCSH SCT006 BKN017 OVC040
     FM070600 05006KT P6SM SCT006 BKN015 OVC030
      TEMPO 0706/0709 BKN006 OVC012
     FM071000 06005KT 3SM BR BKN005
     FM071500 07006KT 4SM BR OVC010
     FM071800 10009KT P6SM SCT025 BKN060 OVC100
      TEMPO 0721/0801 VRB15G30KT -TSRA BKN020CB=

USA.gov is the U.S. government's official web portal to all federal, state and local government web resources and services.